Temp
53 53 53 53 53 52 49 39 33 45 50 37 36 36 44 49 51 56 51 52 49 50 52 50 53 52 58 63 62 55 57 49 43 52 59 61 57 54 55 44 41 39 33 39
52 52 52 53 52 51 44 36 36 45 47 28 30 37 42 46 45 49 50 49 51 52 48 46 50 53 61 62 60 56 56 46 39 44 51 54 52 54 54 51 46 45 38 40
52 52 52 52 52 52 44 37 28 35 40 40 35 35 36 38 49 47 50 51 53 48 48 50 48 50 58 59 60 55 57 49 45 42 46 50 47 51 53 51 36 43 40 47
52 52 52 52 52 52 45 40 35 36 29 35 35 36 38 37 36 47 49 47 48 49 42 48 46 52 53 57 54 56 54 45 46 49 52 51 51 51 52 49 49 42 48 49
51 52 52 52 51 51 43 37 36 37 36 37 36 38 36 35 37 41 43 42 48 50 47 49 48 49 50 52 51 50 51 45 45 38 50 50 48 51 51 52 51 50 49 48
51 51 51 51 51 50 42 43 43 38 37 36 35 35 36 38 40 42 44 46 44 46 50 56 57 54 54 55 54 48 47 43 42 41 47 46 40 46 50 51 53 53 45 52
51 51 51 51 51 50 44 43 43 36 31 33 34 38 40 38 40 38 42 45 43 47 62 60 58 56 56 53 52 51 48 44 41 43 42 35 50 57 58 55 56 56 55 55
51 51 51 51 51 51 45 46 41 36 31 36 37 38 37 40 43 40 41 46 53 57 54 47 44 45 47 51 53 52 50 48 40 36 38 43 48 52 52 49 52 58 56 58
50 50 50 50 50 51 46 42 46 39 33 33 40 36 38 34 35 38 41 51 55 52 47 43 35 35 41 41 47 53 50 47 46 34 34 33 48 57 60 58 45 56 57 54
49 49 49 50 50 51 46 43 45 40 32 38 39 33 34 41 40 37 42 46 46 48 43 39 37 37 47 42 44 42 44 40 40 39 36 38 50 57 59 41 44 54 55 55
49 49 49 49 49 50 47 43 45 42 37 38 43 42 37 39 39 33 40 44 45 43 36 38 37 39 44 45 49 46 44 40 39 37 34 36 54 54 48 52 52 53 52 53
49 49 49 49 49 49 49 41 45 47 40 39 44 45 46 45 44 41 41 41 48 47 43 43 43 39 41 39 36 50 42 47 40 46 45 53 54 55 55 55 53 52 55 54
48 48 49 49 49 49 48 42 45 44 39 38 39 38 47 50 48 49 38 43 50 49 53 46 45 40 42 38 42 43 48 51 44 46 49 52 54 55 55 56 55 55 57 57
48 48 48 48 49 49 49 43 46 44 38 30 36 47 44 51 50 49 51 50 52 55 51 46 44 43 48 41 48 46 47 49 44 44 48 53 53 55 56 56 57 56 57 57
48 48 48 48 49 49 47 45 46 46 39 31 34 42 47 50 49 49 50 51 49 49 46 44 43 45 45 42 45 42 48 48 46 41 52 51 55 55 57 57 58 59 58 55
47 48 48 48 48 49 43 37 43 47 45 35 30 40 41 46 49 49 49 50 49 47 46 44 47 49 44 39 38 48 51 53 56 52 58 58 58 55 57 59 57 57 56 56
47 47 47 48 48 44 39 36 43 47 46 35 32 33 40 44 47 48 47 48 46 45 45 44 44 45 46 39 39 49 53 56 58 58 56 51 55 55 56 58 56 55 55 55
47 47 47 48 48 46 40 44 47 47 40 37 31 32 35 44 40 39 45 42 44 43 42 44 43 45 44 37 46 50 54 55 56 57 61 59 57 57 56 56 56 54 52 51
47 47 47 44 41 38 40 48 48 46 39 32 31 31 33 42 40 41 41 41 35 43 39 42 43 40 37 45 48 50 52 54 54 54 57 57 55 55 54 54 53 51 49 48
47 41 37 33 36 47 46 41 38 38 37 35 31 38 33 40 37 36 36 38 33 32 37 42 38 38 46 50 52 53 53 55 56 49 49 52 51 52 52 54 54 53 50 46
37 33 33 39 46 40 36 32 30 31 29 33 36 39 34 42 35 34 38 33 34 32 35 36 34 34 41 50 51 53 54 54 55 56 56 57 55 52 50 47 49 49 47 46
39 38 42 39 35 32 29 28 30 30 29 35 37 39 40 39 42 37 37 33 34 31 38 32 30 37 48 50 51 52 54 55 55 58 54 53 53 52 51 48 47 47 45 43
39 37 33 31 29 25 24 24 28 29 33 36 39 36 39 39 40 35 36 31 28 38 32 32 35 41 46 48 51 51 51 51 52 52 52 51 49 49 49 46 45 44 42 39
33 30 24 26 23 24 29 29 32 35 37 39 41 37 37 37 34 33 31 35 35 28 28 31 35 41 44 47 50 49 48 50 49 48 49 48 48 45 44 42 40 38 34 30
30 30 23 24 29 31 34 35 35 39 42 41 37 36 37 33 32 33 33 29 28 30 31 33 38 43 45 46 46 47 46 45 47 48 46 40 40 41 37 36 37 34 30 32
32 31 29 29 30 31 32 33 35 42 42 41 39 33 32 31 32 31 30 29 30 33 33 39 42 43 45 45 45 47 46 46 47 46 44 42 40 40 38 36 34 31 32 31
30 29 34 32 31 31 33 36 37 40 39 33 32 31 32 32 30 29 31 30 31 33 35 39 42 43 43 44 44 43 45 45 45 44 44 40 40 40 40 38 35 35 33 33
MSLP
1020.54 1020.77 1020.93 1021.16 1021.34 1021.67 1022.18 1022.54 1022.73 1021.21 1021.29 1021.96 1021.29 1019.90 1018.47 1017.91 1015.76 1016.40 1016.26 1015.64 1014.90 1014.23 1014.00 1013.14 1012.35 1011.00 1010.22 1009.56 1009.91 1010.53 1010.80 1011.05 1010.91 1010.54 1009.91 1009.94 1010.28 1010.67 1011.22 1012.24 1012.76 1012.82 1012.20 1010.42
1020.00 1020.32 1020.48 1020.74 1021.01 1021.41 1022.26 1022.64 1022.33 1021.27 1021.40 1021.57 1021.28 1020.32 1019.55 1018.91 1017.38 1016.38 1016.08 1016.02 1015.39 1014.61 1014.21 1013.74 1012.39 1011.00 1009.72 1009.54 1009.76 1009.87 1010.47 1011.01 1010.99 1010.74 1010.48 1010.18 1010.36 1010.10 1010.40 1010.98 1011.50 1011.46 1011.78 1010.48
1019.36 1019.73 1019.97 1020.29 1020.60 1021.16 1021.87 1022.45 1022.41 1022.16 1021.93 1021.63 1021.44 1021.03 1019.90 1019.07 1017.64 1016.76 1016.76 1015.96 1015.55 1014.96 1013.94 1013.09 1012.18 1011.01 1009.78 1009.35 1009.31 1009.55 1009.90 1010.52 1010.35 1010.17 1010.11 1010.10 1010.21 1010.01 1009.85 1010.39 1010.92 1010.73 1010.21 1009.58
1018.70 1019.06 1019.38 1019.68 1020.21 1020.78 1021.59 1021.68 1021.28 1020.85 1020.93 1020.92 1020.97 1021.16 1019.45 1018.55 1017.55 1016.57 1016.67 1015.79 1014.91 1013.76 1013.57 1012.25 1011.72 1010.75 1010.06 1009.51 1009.41 1009.64 1010.20 1010.79 1010.49 1009.89 1009.76 1009.73 1009.48 1009.47 1009.42 1009.60 1009.65 1009.77 1009.21 1008.96
1018.06 1018.31 1018.76 1019.19 1019.69 1020.28 1021.07 1020.79 1020.72 1020.79 1020.43 1020.27 1020.22 1019.86 1018.43 1018.24 1017.10 1017.45 1015.42 1015.54 1014.17 1013.78 1012.02 1011.16 1011.12 1011.16 1010.37 1009.89 1009.92 1010.11 1010.47 1010.72 1010.71 1010.33 1009.81 1009.76 1009.49 1009.01 1009.04 1008.92 1008.71 1008.82 1008.65 1008.11
1017.48 1017.69 1018.04 1018.64 1019.03 1019.77 1019.75 1020.07 1020.01 1019.91 1019.39 1019.26 1019.34 1018.14 1017.96 1017.46 1017.59 1016.20 1015.97 1014.86 1014.39 1012.32 1010.55 1009.91 1010.24 1010.49 1010.25 1009.61 1009.53 1010.07 1010.68 1011.26 1011.46 1010.65 1010.16 1009.95 1009.34 1008.24 1008.21 1008.17 1007.70 1007.86 1008.24 1007.71
1016.76 1017.05 1017.42 1017.88 1018.27 1018.73 1019.41 1019.45 1019.45 1019.43 1018.44 1018.61 1017.88 1017.55 1017.42 1017.02 1016.31 1015.83 1014.53 1014.21 1012.89 1011.23 1010.82 1011.06 1010.87 1010.31 1009.59 1009.42 1009.66 1009.84 1010.10 1010.66 1011.22 1010.78 1010.66 1009.18 1006.29 1006.26 1006.68 1006.90 1006.78 1006.83 1007.01 1007.21
1016.18 1016.47 1016.80 1017.10 1017.48 1018.00 1018.67 1018.72 1019.03 1019.00 1018.10 1017.47 1016.89 1016.94 1016.28 1015.98 1014.93 1014.15 1012.76 1011.03 1009.68 1011.12 1011.33 1010.25 1009.53 1009.17 1009.68 1008.32 1008.30 1009.40 1009.61 1010.01 1010.91 1010.94 1009.90 1007.98 1006.53 1005.78 1005.95 1006.29 1005.85 1005.49 1006.12 1006.79
1015.60 1015.79 1016.08 1016.39 1016.73 1017.13 1017.84 1018.00 1018.37 1018.31 1017.76 1015.50 1016.20 1016.06 1015.66 1015.06 1014.00 1012.31 1010.57 1008.90 1008.65 1009.97 1009.54 1007.90 1006.10 1006.78 1006.48 1007.15 1007.33 1007.78 1008.69 1009.43 1009.97 1010.36 1009.45 1007.31 1005.15 1004.84 1004.65 1005.48 1005.02 1005.24 1005.64 1006.54
1015.02 1015.28 1015.56 1015.86 1016.12 1016.39 1017.03 1017.08 1017.37 1017.38 1016.70 1015.28 1015.56 1014.75 1014.31 1013.73 1012.98 1011.56 1009.68 1007.63 1007.91 1008.71 1007.19 1006.83 1006.69 1005.02 1004.48 1004.90 1004.82 1005.86 1007.15 1008.33 1008.38 1008.83 1008.31 1006.04 1004.60 1004.01 1004.41 1005.48 1004.87 1004.78 1005.18 1005.94
1014.43 1014.69 1014.98 1015.23 1015.49 1015.74 1016.26 1016.01 1016.40 1016.56 1015.34 1013.61 1013.77 1013.22 1013.04 1012.43 1012.00 1011.33 1009.14 1007.55 1006.01 1006.48 1006.09 1004.66 1003.81 1004.08 1003.48 1003.87 1003.01 1003.50 1004.68 1006.36 1007.04 1008.30 1006.33 1005.52 1003.57 1003.80 1004.08 1003.84 1004.05 1004.71 1005.34 1005.85
1013.79 1014.02 1014.29 1014.56 1014.82 1014.94 1015.18 1014.97 1015.01 1014.93 1014.40 1012.20 1011.65 1011.28 1010.80 1011.02 1010.60 1010.78 1009.01 1007.28 1004.61 1004.03 1003.85 1003.95 1003.44 1003.34 1002.95 1002.89 1002.66 1003.21 1003.40 1002.55 1003.46 1004.11 1003.03 1002.09 1001.99 1002.24 1002.64 1002.90 1003.59 1004.42 1005.04 1005.83
1013.12 1013.26 1013.44 1013.69 1013.92 1014.01 1014.05 1013.85 1013.72 1013.27 1012.26 1011.46 1010.87 1009.49 1007.93 1008.59 1007.89 1008.36 1007.74 1005.31 1004.03 1003.03 1001.61 1002.32 1002.26 1001.95 1002.42 1002.06 1002.12 1002.22 1002.16 1001.59 1002.30 1002.90 1002.22 1001.73 1002.01 1002.30 1002.37 1002.64 1003.00 1003.93 1004.49 1005.27
1012.38 1012.50 1012.57 1012.79 1013.00 1013.03 1013.02 1013.06 1012.83 1012.53 1011.60 1010.51 1007.67 1006.78 1006.63 1005.46 1005.31 1005.17 1004.13 1002.89 1001.59 1001.43 1001.65 1001.12 1001.32 1001.71 1000.66 1000.97 1000.75 1001.85 1000.82 1000.75 1001.23 1001.73 1001.71 1001.56 1001.81 1001.74 1002.09 1002.55 1002.89 1004.09 1005.01 1005.48
1011.65 1011.78 1011.88 1011.94 1012.17 1012.25 1012.25 1012.18 1011.58 1011.23 1011.25 1009.27 1007.33 1006.20 1003.99 1002.73 1002.63 1002.22 1002.03 1000.96 1000.39 1000.55 1000.89 999.97 1000.43 1001.09 1000.07 1000.57 1000.71 999.64 998.97 999.04 1000.10 999.90 1000.39 1000.25 1000.70 1001.42 1001.81 1002.60 1003.22 1003.88 1004.88 1006.13
1011.02 1011.16 1011.31 1011.31 1011.47 1011.63 1011.93 1010.88 1009.32 1009.53 1009.81 1009.15 1007.40 1004.57 1002.80 1001.59 1001.54 1000.18 998.99 999.71 999.95 999.52 998.28 999.15 999.18 999.53 999.49 999.68 999.62 998.14 997.56 997.72 997.64 998.69 998.89 999.23 999.98 1001.27 1001.99 1002.62 1003.44 1004.08 1004.87 1005.72
1010.44 1010.64 1010.75 1010.74 1010.78 1011.09 1011.06 1010.28 1009.34 1008.98 1009.25 1008.60 1007.19 1004.41 1002.10 1000.75 1000.38 999.89 1000.04 999.67 999.86 1000.15 999.15 998.83 998.62 999.30 998.76 999.52 998.77 997.74 997.52 997.35 997.41 997.96 998.60 999.92 1000.31 1001.29 1002.16 1002.73 1003.84 1004.45 1005.45 1006.26
1009.98 1010.10 1010.18 1010.18 1010.15 1010.27 1009.81 1009.05 1009.05 1008.95 1009.39 1008.98 1006.95 1004.08 1002.29 1000.89 1000.05 1000.10 999.58 999.66 1000.05 1000.29 999.92 998.76 998.63 999.34 999.04 999.17 998.28 997.72 997.50 997.34 997.59 997.57 997.73 998.67 1000.04 1001.07 1002.54 1003.16 1004.11 1005.27 1006.30 1007.10
1009.48 1009.52 1009.64 1009.81 1009.74 1009.40 1008.48 1008.13 1008.11 1008.16 1008.36 1007.38 1005.96 1004.03 1002.15 1000.43 1000.13 1000.15 1000.23 1000.25 1000.58 1000.23 999.89 998.94 998.32 998.77 998.33 997.99 997.85 997.93 997.87 997.54 997.58 998.27 998.61 999.41 1000.32 1001.65 1002.72 1003.47 1004.63 1005.70 1007.04 1007.79
1009.03 1009.46 1009.60 1009.36 1009.04 1008.46 1008.22 1007.70 1007.36 1006.83 1006.66 1006.18 1004.55 1003.04 1002.22 1000.56 1000.30 1000.42 1000.77 1000.66 1000.82 1000.53 1000.08 999.28 998.65 998.33 997.53 997.38 997.23 997.76 997.45 998.01 997.87 998.62 999.44 1000.25 1001.27 1002.04 1003.20 1003.87 1004.65 1005.72 1007.15 1008.49
1008.91 1008.93 1008.87 1008.50 1008.27 1008.39 1007.83 1007.13 1006.33 1005.60 1005.05 1003.70 1002.35 1001.84 1001.75 1000.65 1000.21 1000.72 1000.84 1001.01 1001.19 1001.00 1000.44 999.92 999.58 998.36 996.78 996.60 997.21 997.52 997.66 998.13 998.63 998.97 999.79 1000.45 1000.75 1002.34 1003.57 1004.62 1005.29 1006.33 1007.38 1008.25
1007.95 1008.14 1008.26 1008.42 1008.28 1007.94 1007.22 1005.68 1004.92 1004.17 1002.91 1001.91 1001.13 1000.47 1000.54 1000.09 1000.03 1000.66 1001.14 1001.10 1001.04 1000.69 1000.26 1000.42 999.56 997.18 996.01 996.36 996.99 997.07 997.28 997.68 998.70 999.37 1000.23 1001.11 1001.64 1002.50 1003.56 1004.58 1005.68 1006.75 1007.70 1008.60
1007.97 1008.01 1008.24 1008.00 1007.69 1007.20 1005.94 1004.22 1003.54 1002.69 1001.79 1000.56 999.87 1000.03 1000.04 1000.23 1000.70 1001.05 1001.32 1001.26 1001.49 1001.11 1000.72 1000.42 998.65 997.05 996.50 996.22 996.75 997.30 997.67 998.00 998.75 999.61 1000.06 1001.11 1002.40 1003.28 1004.00 1005.42 1006.54 1007.37 1008.55 1009.42
1007.63 1007.69 1007.60 1007.21 1006.36 1005.26 1003.74 1003.11 1002.38 1001.46 1000.75 1000.02 999.49 999.90 999.76 1000.32 1000.79 1001.23 1001.37 1001.56 1001.51 1001.18 1000.66 999.39 998.08 997.11 997.00 997.07 996.97 997.22 997.90 998.38 999.12 999.95 1000.77 1001.91 1003.12 1004.30 1005.15 1006.05 1007.18 1008.37 1009.51 1010.10
1006.53 1006.76 1006.21 1005.39 1004.26 1003.63 1002.97 1002.89 1002.21 1000.93 1000.11 999.57 999.68 999.63 999.33 1000.07 1000.80 1001.09 1001.34 1001.49 1000.76 999.81 998.94 997.85 996.82 996.25 996.54 997.11 997.31 997.59 998.20 998.78 999.61 1000.46 1001.55 1002.77 1004.10 1005.26 1006.61 1007.43 1008.08 1008.66 1009.63 1010.18
1006.04 1005.64 1004.86 1004.27 1004.02 1003.15 1002.70 1002.36 1001.57 1000.42 999.81 999.40 999.49 999.55 999.83 999.60 999.82 1000.30 1000.12 999.99 998.93 998.20 997.85 996.17 996.17 996.57 996.85 997.30 997.59 998.22 998.76 999.43 1000.29 1001.43 1002.54 1003.85 1004.97 1005.97 1007.25 1008.22 1008.72 1009.20 1009.60 1010.34
1004.68 1004.38 1004.01 1003.80 1003.62 1003.25 1002.63 1002.24 1001.35 1000.60 999.51 999.19 999.04 998.89 999.29 999.47 999.39 999.67 999.20 998.42 997.43 997.11 996.83 996.69 996.63 996.99 997.69 997.85 998.08 998.63 999.44 1000.48 1001.42 1002.58 1003.56 1004.58 1005.50 1006.46 1007.41 1008.36 1009.12 1009.36 1010.01 1010.42
Wind_Speed
12 10 9 9 9 10 4 2 1 4 5 4 3 16 11 7 14 15 11 5 6 14 16 5 10 12 10 5 5 8 10 5 6 17 8 8 7 11 11 11 8 3 4 8
13 11 10 10 11 12 4 2 2 4 2 4 4 5 17 19 18 25 10 19 10 4 6 8 8 7 6 8 9 9 7 5 2 6 4 2 7 5 6 3 3 17 9 7
14 13 12 13 13 14 4 2 2 3 4 5 10 8 12 18 22 23 27 20 23 9 19 8 7 5 6 5 8 6 7 6 9 14 10 6 5 6 4 8 5 6 7 5
14 14 14 14 14 15 4 4 5 4 4 8 14 12 9 16 16 27 22 27 31 24 18 22 14 14 4 4 3 5 6 7 6 6 7 6 8 6 9 8 6 8 6 10
13 14 15 16 15 15 5 4 4 4 4 3 8 11 15 23 27 18 31 28 34 34 29 28 24 4 5 7 2 4 2 7 6 5 6 7 5 9 7 6 4 5 3 4
14 15 17 16 16 14 4 3 3 1 5 8 10 15 19 22 21 26 33 34 28 40 35 33 18 8 7 8 10 9 6 5 3 11 4 3 8 12 12 6 6 7 7 8
13 14 16 15 15 15 3 3 2 4 9 11 17 22 22 23 25 27 27 29 37 45 27 22 24 21 17 9 11 7 9 7 5 13 3 16 9 10 15 16 11 10 6 6
12 12 14 15 16 16 6 4 5 4 9 14 17 17 18 20 25 25 35 31 38 23 33 21 27 25 31 29 21 18 9 9 5 5 13 5 5 6 9 10 18 8 12 13
12 11 11 12 14 16 6 4 5 4 6 16 18 17 17 18 18 24 30 31 22 14 22 21 10 16 18 14 12 18 10 5 12 4 7 14 8 8 7 5 15 10 11 9
11 12 12 13 13 14 8 4 11 5 6 11 7 9 12 9 13 14 20 9 18 25 16 19 20 13 8 19 22 11 14 6 17 10 8 8 7 5 8 13 9 8 11 12
13 13 12 13 14 14 10 6 9 9 8 15 15 15 15 14 11 14 14 14 13 10 15 6 5 6 12 12 13 21 16 13 10 7 4 18 8 6 12 7 2 7 6 9
14 14 13 13 14 13 13 8 6 10 14 8 7 17 26 26 26 15 11 20 12 16 8 11 4 4 5 5 5 3 15 14 11 16 11 5 6 7 6 7 8 7 11 9
15 15 15 14 14 15 15 6 6 5 8 9 12 19 28 25 28 22 17 17 24 13 10 5 5 5 5 7 7 5 9 5 7 6 6 7 8 1 5 7 7 8 9 16
15 16 16 15 14 15 15 6 6 6 3 5 12 7 10 10 17 27 28 27 13 19 6 5 4 7 6 6 8 13 8 7 8 1 0 7 2 6 10 7 11 11 9 11
16 16 15 16 15 15 10 6 8 8 6 4 8 13 27 25 18 23 22 19 18 9 10 6 5 3 3 2 2 5 7 11 10 7 11 6 9 8 10 14 14 17 13 7
15 15 15 16 14 13 1 5 6 12 8 5 5 5 7 4 15 14 5 13 12 11 4 3 5 3 3 5 5 5 4 7 9 6 13 8 10 11 6 13 14 10 13 12
14 14 15 15 15 5 4 4 2 4 0 3 6 7 4 3 8 5 4 0 3 2 5 4 2 4 3 2 4 2 7 9 9 10 12 6 7 12 9 15 11 13 10 8
13 13 13 13 15 10 8 8 18 6 3 3 6 7 4 3 3 1 2 2 3 2 2 2 4 3 2 3 5 4 2 7 8 13 10 11 11 15 13 16 17 16 13 10
11 11 11 3 4 3 4 5 6 4 5 4 3 3 4 2 2 2 2 2 1 2 1 3 3 3 5 6 7 4 3 5 11 6 13 17 20 18 17 17 14 16 10 8
9 2 2 3 4 4 6 0 4 6 5 4 5 2 6 2 1 2 2 2 1 0 3 2 3 2 3 4 6 10 7 8 10 13 8 13 15 18 16 15 14 15 13 8
3 3 3 3 2 1 3 5 5 4 4 5 4 7 3 4 2 2 1 2 2 2 2 2 1 4 6 5 7 10 10 13 8 11 12 14 20 17 13 10 12 13 13 10
5 5 1 1 1 3 6 5 4 4 6 5 4 5 4 2 3 3 1 2 0 1 2 3 3 6 9 10 11 11 11 13 13 14 15 13 14 14 14 13 13 10 8 9
0 1 2 3 4 6 6 4 4 4 3 5 4 3 3 3 2 3 1 2 2 1 3 3 5 4 3 4 9 8 8 10 10 9 13 14 11 10 13 11 8 11 10 7
4 5 6 6 5 7 5 3 3 4 4 4 6 2 2 3 3 2 4 1 2 2 4 7 4 6 5 6 7 11 10 13 12 12 14 16 15 10 9 9 9 11 9 6
4 4 6 8 5 4 1 4 6 7 5 7 3 3 2 3 4 1 4 3 6 6 6 5 5 8 6 7 5 8 10 9 11 11 13 12 13 13 9 7 8 10 8 8
4 5 4 4 3 3 2 5 9 6 6 2 2 2 2 2 6 4 7 6 6 4 5 4 3 5 6 7 7 7 8 10 12 11 13 14 14 14 12 8 7 6 8 8
5 5 5 5 3 4 2 2 4 8 5 3 3 4 4 3 3 4 4 6 4 3 2 1 3 7 6 6 8 9 12 11 12 12 12 9 10 12 10 9 6 6 6 6
Wind_Direction
240 235 227 222 214 161 116 118 64 272 148 153 203 220 207 269 261 223 240 266 233 245 260 270 238 232 214 175 174 178 206 184 228 238 229 203 185 222 212 221 248 248 192 250
233 229 220 209 191 153 126 170 189 302 99 207 243 318 241 250 269 251 232 235 237 224 239 232 228 239 234 206 177 195 180 237 259 317 333 227 230 202 216 166 128 222 227 262
229 224 215 198 189 179 115 147 207 268 199 214 221 232 247 250 249 264 251 257 234 257 237 230 269 245 241 218 203 159 141 200 185 232 212 175 202 214 210 205 194 219 217 193
224 218 212 199 192 189 157 195 219 205 198 209 216 226 261 243 244 240 248 247 250 228 238 228 229 235 281 225 169 157 153 235 200 229 221 188 205 188 199 196 214 188 223 199
224 216 211 204 195 194 209 213 204 193 222 270 253 239 241 253 259 263 257 245 238 239 239 231 236 212 205 222 179 196 242 245 184 267 211 208 232 211 205 216 218 262 198 222
220 216 213 209 198 183 208 181 220 249 235 215 235 237 247 251 252 256 241 256 263 235 237 233 241 261 236 221 198 201 181 187 183 245 200 190 258 210 202 210 199 167 196 215
220 216 213 209 202 190 196 187 183 218 254 233 239 253 250 254 256 262 258 254 242 251 250 245 250 257 261 255 251 230 213 193 184 245 166 229 246 185 197 212 200 198 181 202
218 215 216 218 211 207 208 192 195 207 253 250 255 245 254 262 257 267 260 248 240 231 234 239 231 232 238 242 234 234 212 213 219 189 228 285 245 204 168 180 236 202 183 190
216 220 220 218 220 220 209 211 206 196 249 243 241 253 255 261 271 271 262 256 230 235 232 238 219 204 197 206 208 204 192 221 213 147 231 222 199 207 189 109 253 207 185 176
216 221 223 223 227 230 205 217 202 217 234 243 232 235 251 237 254 272 276 234 225 211 237 221 232 230 193 215 213 182 192 195 215 213 229 270 240 184 128 176 233 173 175 173
223 228 231 230 233 231 213 234 201 226 253 251 238 244 245 251 236 253 273 247 218 219 226 199 197 200 202 214 227 190 183 181 198 179 225 246 187 96 190 190 135 145 148 159
231 235 236 235 238 237 224 250 220 225 238 259 246 250 248 246 246 252 237 267 229 211 219 192 229 200 144 168 191 208 203 188 171 188 203 210 166 181 196 169 149 169 151 138
234 241 243 242 243 246 229 249 264 241 241 256 250 247 254 241 238 224 248 258 239 250 227 184 204 213 136 181 215 109 229 158 156 127 215 173 172 137 169 170 140 137 137 140
238 244 247 249 250 258 234 241 254 233 226 253 265 234 236 241 227 226 234 238 263 225 222 187 184 219 168 187 183 203 210 141 145 148 157 93 167 190 164 135 123 111 126 143
243 244 246 255 258 263 250 247 250 227 239 281 275 295 277 258 229 242 251 216 220 233 201 199 180 217 126 135 269 197 191 168 179 202 184 147 179 172 149 140 144 144 140 117
241 245 253 256 256 261 21 278 216 218 212 262 277 283 261 278 246 226 260 195 218 229 317 186 143 176 149 147 201 259 191 185 153 171 170 157 153 147 151 140 145 132 130 138
244 252 257 254 257 218 206 246 328 59 278 273 275 268 282 268 236 209 253 337 98 311 202 211 159 150 124 121 189 261 203 191 148 139 117 75 156 163 160 134 124 113 111 115
253 257 247 248 258 239 251 239 258 263 245 245 265 265 308 244 170 230 176 116 99 247 281 228 152 126 115 203 234 305 250 142 143 155 163 146 121 120 122 125 127 124 127 124
263 250 254 273 215 236 243 285 285 191 193 230 257 263 275 217 78 125 68 117 113 280 196 279 106 139 203 167 203 205 258 187 162 106 128 129 135 137 138 133 132 126 129 121
256 189 154 232 218 311 332 9 239 198 205 227 244 234 274 289 46 64 79 37 66 114 247 326 43 249 241 187 186 193 171 82 119 107 100 126 140 141 146 152 146 143 143 143
159 177 222 239 11 218 231 236 212 188 227 213 233 203 211 252 131 136 139 129 154 196 251 133 194 265 217 145 175 173 161 139 151 148 162 170 150 151 149 137 137 141 147 156
195 170 132 349 204 236 249 211 219 221 233 197 220 198 186 251 71 92 344 96 10 197 75 51 271 247 193 162 184 177 182 176 170 176 156 152 142 142 141 142 146 147 125 119
257 110 224 193 205 242 241 223 207 235 215 228 181 171 186 82 76 66 103 95 201 156 106 225 240 295 291 186 155 164 146 140 144 133 132 138 134 135 139 126 114 116 107 108
192 184 217 215 216 230 212 239 265 273 250 270 167 221 169 142 114 150 107 152 178 189 191 218 228 216 202 215 185 139 147 145 139 137 135 138 136 117 103 110 121 122 119 117
190 191 224 217 244 274 297 278 277 268 274 247 121 198 129 94 113 182 130 178 223 213 219 224 205 219 154 168 129 124 128 126 123 125 123 116 116 119 110 115 113 109 117 121
208 227 243 234 260 278 262 279 279 258 251 84 209 147 130 186 132 152 208 179 224 223 206 238 131 135 142 145 132 133 119 122 121 122 126 128 131 134 132 120 120 128 131 132
203 227 234 252 268 260 260 278 299 339 274 174 209 131 177 100 134 203 204 212 215 224 231 226 122 121 132 126 113 120 123 125 127 124 130 119 115 121 120 119 152 137 121 110